Weather Data

Pearl Creek Farm: 8878 N Farm Road 75, Walnut Grove MO 65770

<== Previous Day (Wednesday 09 Jan 2013) | Next Day (Friday 11 Jan 2013) ==>

Summary Precipitation Data For Thursday 10 January 2013

ElementValueUnits
Precipitation0.02"
NotesWet but not nearly the rain we were expecting. Some fog this morning and very warm (mid 40s).
SourcePearl Creek Farm

Summary Temperature Data For Thursday 10 January 2013

ElementValueUnits
High Temperature57 oF
Low Temperature44 oF
Average Temperature50 oF
High Humidity95 %
Low Humidity65 %
Average Humidity87 %
SourcePearl Creek Farm

Detail Temperature Data For Thursday 10 January 2013

Date / TimeTemp (F)RH (%)Dew Pt (F)Report Date / TimeSource
2013-01-10 00:00:00 49 65 37.8 2013-01-27 10:51:56 Pearl Creek Farm
2013-01-10 00:30:00 49 65 37.8 2013-01-27 10:51:56 Pearl Creek Farm
2013-01-10 01:00:00 48 67 37.4 2013-01-27 10:51:56 Pearl Creek Farm
2013-01-10 01:30:00 47 71 38.1 2013-01-27 10:51:56 Pearl Creek Farm
2013-01-10 02:00:00 47 73 38.8 2013-01-27 10:51:56 Pearl Creek Farm
2013-01-10 02:30:00 47 73 38.8 2013-01-27 10:51:56 Pearl Creek Farm
2013-01-10 03:00:00 46 77 39.2 2013-01-27 10:51:56 Pearl Creek Farm
2013-01-10 03:30:00 45 82 39.7 2013-01-27 10:51:56 Pearl Creek Farm
2013-01-10 04:00:00 45 84 40.5 2013-01-27 10:51:56 Pearl Creek Farm
2013-01-10 04:30:00 44 86 39.9 2013-01-27 10:51:56 Pearl Creek Farm
2013-01-10 05:00:00 44 86 40.1 2013-01-27 10:51:56 Pearl Creek Farm
2013-01-10 05:30:00 44 87 40.4 2013-01-27 10:51:56 Pearl Creek Farm
2013-01-10 06:00:00 44 88 40.7 2013-01-27 10:51:56 Pearl Creek Farm
2013-01-10 06:30:00 44 89 40.8 2013-01-27 10:51:56 Pearl Creek Farm
2013-01-10 07:00:00 44 89 41.0 2013-01-27 10:51:56 Pearl Creek Farm
2013-01-10 07:30:00 45 90 42.1 2013-01-27 10:51:56 Pearl Creek Farm
2013-01-10 08:00:00 45 90 42.1 2013-01-27 10:51:56 Pearl Creek Farm
2013-01-10 08:30:00 46 91 43.4 2013-01-27 10:51:56 Pearl Creek Farm
2013-01-10 09:00:00 47 91 44.4 2013-01-27 10:51:56 Pearl Creek Farm
2013-01-10 09:30:00 48 91 45.4 2013-01-27 10:51:56 Pearl Creek Farm
2013-01-10 10:00:00 48 91 45.5 2013-01-27 10:51:56 Pearl Creek Farm
2013-01-10 10:30:00 49 92 46.6 2013-01-27 10:51:56 Pearl Creek Farm
2013-01-10 11:00:00 50 91 47.5 2013-01-27 10:51:56 Pearl Creek Farm
2013-01-10 11:30:00 51 91 48.3 2013-01-27 10:51:56 Pearl Creek Farm
2013-01-10 12:00:00 52 90 49.2 2013-01-27 10:51:56 Pearl Creek Farm
2013-01-10 12:30:00 54 89 50.8 2013-01-27 10:51:56 Pearl Creek Farm
2013-01-10 13:00:00 55 89 51.8 2013-01-27 10:51:56 Pearl Creek Farm
2013-01-10 13:30:00 56 89 52.7 2013-01-27 10:51:56 Pearl Creek Farm
2013-01-10 14:00:00 57 88 53.3 2013-01-27 10:51:56 Pearl Creek Farm
2013-01-10 14:30:00 57 87 53.2 2013-01-27 10:51:56 Pearl Creek Farm
2013-01-10 15:00:00 56 88 52.3 2013-01-27 10:51:56 Pearl Creek Farm
2013-01-10 15:30:00 56 89 52.7 2013-01-27 10:51:56 Pearl Creek Farm
2013-01-10 16:00:00 55 89 51.8 2013-01-27 10:51:56 Pearl Creek Farm
2013-01-10 16:30:00 55 90 52.1 2013-01-27 10:51:56 Pearl Creek Farm
2013-01-10 17:00:00 54 91 51.3 2013-01-27 10:51:56 Pearl Creek Farm
2013-01-10 17:30:00 54 92 51.6 2013-01-27 10:51:56 Pearl Creek Farm
2013-01-10 18:00:00 53 91 50.4 2013-01-27 10:51:56 Pearl Creek Farm
2013-01-10 18:30:00 53 93 51.0 2013-01-27 10:51:56 Pearl Creek Farm
2013-01-10 19:00:00 53 93 51.0 2013-01-27 10:51:56 Pearl Creek Farm
2013-01-10 19:30:00 52 92 49.8 2013-01-27 10:51:56 Pearl Creek Farm
2013-01-10 20:00:00 51 92 48.8 2013-01-27 10:51:56 Pearl Creek Farm
2013-01-10 20:30:00 50 93 47.9 2013-01-27 10:51:56 Pearl Creek Farm
2013-01-10 21:00:00 50 93 47.9 2013-01-27 10:51:56 Pearl Creek Farm
2013-01-10 21:30:00 49 93 46.9 2013-01-27 10:51:56 Pearl Creek Farm
2013-01-10 22:00:00 49 95 47.5 2013-01-27 10:51:56 Pearl Creek Farm
2013-01-10 22:30:00 50 93 48.1 2013-01-27 10:51:56 Pearl Creek Farm
2013-01-10 23:00:00 49 92 46.6 2013-01-27 10:51:56 Pearl Creek Farm
2013-01-10 23:30:00 48 92 45.8 2013-01-27 10:51:56 Pearl Creek Farm

A total of 48 rows are displayed.